Theta_e
310 310 310 311 311 310 309 310 310 310 310 310 308 308 309 310 307 305 314 316 312 315 315 318 323 325 325 325 327 333 336 335 337 337 337 338 335 336 336 336 339 346 345 344 345 347 349 349 353 350 352 356 364 368 368 366 365 368 370 375 374 375 372 372 369 374 373 373 375 375 380 376 373 370 367 366 364 363 360 356 350 349 351 346 345 344 344
310 310 309 311 310 310 310 310 311 311 310 310 310 310 311 311 310 312 313 316 313 315 317 318 324 326 327 327 328 333 333 332 332 332 334 335 338 337 335 336 339 344 351 351 358 348 355 353 357 359 359 353 361 365 367 369 371 372 373 374 375 374 371 371 371 376 375 374 374 378 376 373 371 368 365 363 361 360 357 354 352 352 350 348 347 344 341
308 310 311 310 310 309 308 310 311 311 311 311 311 311 311 312 311 312 312 313 314 318 321 319 322 329 328 330 327 327 329 330 331 331 331 334 337 338 337 337 339 343 348 355 361 352 352 354 360 360 358 358 364 365 367 371 373 375 375 375 376 374 370 373 372 376 375 373 375 377 374 371 368 366 363 361 359 356 352 352 352 351 349 347 345 342 340
305 309 309 309 310 310 309 308 310 310 309 308 309 309 311 310 310 311 312 312 312 318 322 322 325 327 328 329 329 328 326 327 329 331 331 332 334 337 338 339 339 341 344 350 359 359 355 354 359 358 360 360 361 364 369 372 375 377 376 375 375 374 372 373 372 374 373 375 376 374 372 369 366 364 361 359 355 353 351 350 350 349 348 346 344 341 336
304 308 309 308 309 308 305 305 308 310 312 312 312 313 314 313 314 309 310 311 318 320 322 320 322 324 328 328 329 331 333 331 330 330 331 333 335 335 338 339 340 341 343 348 356 360 358 356 358 358 364 361 360 363 367 374 376 375 375 375 375 373 372 373 371 372 375 376 374 371 369 367 365 362 359 356 353 351 349 349 349 348 347 343 342 340 337
305 308 308 309 305 299 301 311 314 313 310 311 310 310 312 319 320 313 317 318 322 321 321 321 321 327 328 328 330 333 337 336 333 333 334 335 338 339 338 339 342 344 346 350 355 359 360 359 362 362 366 365 365 368 370 376 374 374 374 375 374 372 370 371 370 373 376 375 371 369 367 365 362 360 357 354 352 352 350 349 347 345 344 343 342 341 337
305 308 308 302 298 299 311 314 315 315 315 314 314 314 315 318 320 320 319 322 322 322 323 323 325 328 329 333 330 334 337 339 337 335 336 342 341 342 342 341 341 345 346 349 352 355 358 356 357 362 364 367 369 370 372 374 374 373 373 373 372 371 370 371 371 374 376 372 369 367 365 363 360 358 356 354 352 350 349 347 346 345 343 342 340 339 337
308 305 304 296 298 309 312 314 315 317 316 315 314 312 315 319 317 319 319 321 322 323 324 324 328 330 329 330 333 335 338 339 339 338 338 340 343 344 347 345 344 344 345 347 349 350 355 357 355 356 361 365 370 370 374 375 374 371 371 371 370 371 370 372 373 375 373 370 368 365 363 361 359 356 354 352 350 350 349 348 348 347 344 342 340 339 337
303 305 303 302 309 308 309 311 313 315 314 314 312 307 313 318 318 320 320 322 324 324 325 327 327 329 329 331 331 332 336 339 335 335 337 339 346 349 351 351 349 348 347 347 349 353 353 354 356 355 358 363 369 371 373 372 371 370 369 369 370 370 370 372 374 374 372 369 366 363 362 359 357 354 352 350 350 350 347 346 345 344 342 341 341 338 337
309 305 303 303 302 300 306 312 316 319 319 319 319 315 313 320 322 323 321 321 322 323 324 328 330 330 328 323 330 332 333 335 335 335 335 338 343 346 349 356 356 354 352 350 350 350 351 353 355 359 362 367 370 370 368 368 369 368 367 368 370 370 371 375 374 373 372 369 364 362 360 358 356 354 352 351 349 349 346 344 343 343 343 341 341 340 338
308 308 302 302 301 304 311 312 316 318 319 318 320 313 307 320 323 323 322 322 325 325 327 329 331 327 320 323 326 335 333 336 335 333 336 336 340 346 350 351 352 353 356 354 350 353 351 348 354 362 366 367 367 366 365 367 369 367 366 368 369 369 373 376 374 372 371 368 365 361 360 358 355 352 350 349 349 349 346 345 344 343 341 340 340 341 339
307 306 304 301 307 307 313 314 317 318 319 319 315 302 305 317 323 323 323 324 326 330 333 333 331 329 322 324 329 333 335 337 336 338 342 347 339 343 348 351 351 353 357 360 354 354 353 354 356 360 363 362 364 366 365 368 367 366 367 369 371 374 377 375 373 372 370 366 364 362 360 357 355 353 351 350 349 347 345 343 341 342 341 340 340 338 340
307 306 304 307 308 316 321 319 319 320 320 316 306 302 314 322 323 324 324 327 329 332 336 336 333 335 336 335 339 340 335 336 345 347 349 354 355 348 348 350 360 354 353 352 350 350 351 356 355 357 357 357 364 367 367 368 366 367 369 372 373 378 377 374 372 370 368 366 363 362 360 356 354 352 351 349 347 346 344 344 343 342 341 339 338 338 340
305 307 304 305 311 319 322 321 326 326 314 305 307 318 324 323 323 325 325 326 334 334 335 338 336 337 338 337 339 345 348 345 351 347 347 351 353 354 357 357 354 355 352 354 355 352 355 360 359 360 359 362 368 368 368 366 366 369 372 373 378 378 374 371 370 368 366 365 363 360 358 355 352 350 350 349 347 345 344 343 341 339 338 338 338 339 341
309 308 305 303 298 322 324 322 324 326 316 315 324 325 326 328 326 324 326 328 333 334 335 336 338 337 336 336 339 350 349 349 348 346 344 347 348 357 361 363 365 352 351 352 351 352 351 356 358 359 361 370 370 368 366 367 365 368 371 375 377 375 372 370 367 365 364 362 360 358 355 353 350 348 348 347 345 345 342 340 337 336 336 336 336 337 338
306 308 305 303 314 321 324 322 316 322 325 327 328 326 325 327 328 326 327 332 332 336 336 334 334 337 339 342 346 347 350 346 345 344 344 345 347 354 360 364 364 363 364 364 366 370 362 363 367 363 365 368 368 366 366 368 364 369 373 376 375 370 368 367 364 363 362 359 357 355 353 351 349 347 346 344 343 341 340 338 336 335 334 333 334 334 334
312 314 314 319 325 322 323 324 325 325 328 330 329 327 327 324 326 328 327 329 335 340 338 336 335 335 341 340 346 346 349 348 346 343 343 346 348 356 356 359 363 364 363 362 362 362 364 372 371 370 370 367 367 364 368 371 371 373 374 373 371 367 364 363 361 360 359 358 355 353 352 350 347 344 343 342 340 341 340 339 337 333 331 332 332 334 334
319 320 320 326 323 324 324 325 326 325 328 329 330 328 327 330 329 328 327 330 334 338 341 337 335 331 330 331 337 346 353 352 353 354 354 356 357 356 358 358 359 362 363 363 361 360 361 362 367 376 372 370 366 368 373 377 378 376 372 369 365 364 362 360 358 358 355 353 353 352 350 348 345 343 341 340 339 338 337 336 336 332 330 330 331 332 333
312 304 318 319 324 325 325 325 326 328 328 329 329 330 330 330 330 328 328 335 337 340 343 340 337 333 333 332 336 349 352 353 355 355 354 355 357 356 355 358 360 358 358 357 357 357 357 361 363 367 372 372 373 375 377 376 375 372 368 365 361 360 358 357 356 353 351 349 348 348 347 345 343 342 341 340 339 338 340 338 335 332 331 331 330 331 332
313 313 319 322 324 326 326 326 325 324 326 329 332 331 331 331 332 330 331 337 338 339 338 339 336 335 336 336 335 342 345 352 354 354 354 355 355 356 358 358 359 357 356 354 355 355 355 359 362 361 360 361 364 367 369 370 370 368 363 361 358 357 357 355 351 350 347 343 344 346 345 343 340 338 338 339 339 337 336 337 334 332 331 331 330 330 330
316 318 322 321 324 324 323 323 324 325 327 328 329 333 332 332 331 332 333 335 334 333 339 339 337 336 338 341 339 347 351 355 353 354 354 355 355 356 356 356 357 356 355 354 353 352 353 357 360 362 360 359 360 363 364 364 366 363 360 358 358 356 354 351 349 346 345 344 344 342 340 340 341 341 339 338 335 334 333 335 340 334 332 332 332 332 332
311 312 316 319 315 316 322 322 322 324 328 328 331 330 330 332 333 337 334 333 339 338 338 336 338 343 338 337 342 346 351 352 352 352 353 354 354 354 356 356 355 354 354 354 353 352 354 356 357 359 360 362 361 358 359 360 361 359 358 356 354 351 350 347 346 344 344 342 339 336 332 327 323 317 314 319 329 329 325 320 313 312 325 336 335 333 335
310 317 320 322 322 322 324 323 322 324 327 327 329 330 329 330 334 335 335 337 339 339 340 337 336 337 340 341 346 351 352 353 355 356 352 352 353 352 355 354 352 351 351 351 350 352 353 355 354 355 357 359 360 358 358 359 358 358 357 353 351 348 345 344 343 343 340 335 333 333 331 329 327 323 319 312 301 308 316 315 307 302 302 308 321 329 334
316 320 320 321 321 318 321 323 323 324 326 326 326 331 332 331 333 335 335 338 340 341 340 340 339 341 343 346 348 350 351 352 355 355 355 353 353 354 355 353 352 351 349 349 349 349 351 352 352 353 352 355 358 356 357 357 358 357 356 352 349 346 345 344 341 341 337 334 333 331 331 330 330 328 321 315 311 302 301 305 305 302 302 304 308 313 316
317 320 321 321 320 320 321 322 323 324 325 325 324 325 328 328 335 335 336 338 342 342 338 341 342 346 348 349 351 350 351 354 354 353 354 354 353 352 351 351 350 351 350 350 349 349 350 350 351 351 351 353 354 354 357 356 357 356 355 351 349 346 344 341 340 338 335 333 331 331 330 329 328 326 322 319 315 313 310 301 301 300 300 301 303 305 307
320 320 321 320 320 319 320 320 321 323 324 323 323 325 329 331 332 337 335 339 341 342 341 344 343 348 350 350 350 353 355 353 350 353 352 351 352 352 351 351 351 351 350 350 349 348 348 348 349 350 351 351 353 354 353 355 355 353 351 349 347 344 341 339 337 335 333 332 330 329 330 329 328 327 325 324 321 317 316 317 318 311 304 300 299 301 300
318 319 318 316 315 317 319 317 317 322 322 324 323 324 325 327 331 330 334 338 337 338 340 343 346 349 351 351 352 350 352 352 351 354 353 351 350 352 353 353 352 351 349 349 349 349 348 348 347 348 349 350 353 353 353 353 352 351 349 347 344 340 338 337 336 334 332 331 331 331 330 330 329 329 328 328 323 321 321 321 321 320 319 319 309 304 310
318 319 318 314 313 314 316 318 319 320 320 321 323 323 323 324 326 328 329 333 335 338 342 344 346 347 347 349 349 350 352 352 352 352 352 352 352 353 354 353 351 350 348 349 349 349 347 347 346 346 347 349 351 351 350 350 350 348 349 343 337 335 335 335 335 334 332 331 330 329 328 328 329 329 330 328 325 325 325 325 323 321 320 320 317 306 302
318 318 319 318 319 319 321 322 321 321 322 323 325 325 323 322 322 325 327 328 330 336 337 340 345 346 346 347 349 349 349 350 351 351 352 353 352 352 352 351 349 348 350 349 348 347 347 347 347 346 347 348 349 349 349 349 350 349 345 339 336 334 334 335 336 335 333 332 334 334 332 331 330 331 329 328 327 327 327 326 325 323 321 321 318 316 316
317 320 319 318 319 319 319 318 319 320 319 321 321 322 323 324 323 323 324 327 328 330 336 338 342 344 345 345 347 348 348 348 350 353 352 352 351 351 350 350 349 349 349 349 348 348 348 347 347 347 347 348 348 348 346 349 349 346 343 340 338 337 337 338 338 338 337 336 335 332 332 332 332 329 327 326 326 325 325 325 325 324 322 320 319 318 319
319 319 318 318 316 317 316 318 321 320 320 321 321 320 320 322 322 324 327 328 330 331 335 334 335 337 342 345 348 349 350 351 352 352 352 351 351 350 351 351 347 345 346 348 349 349 349 349 349 349 348 348 348 348 347 348 346 345 342 341 340 336 334 333 335 336 335 333 332 333 330 329 327 327 326 325 325 325 325 325 325 324 322 320 318 318 320
317 317 317 318 318 318 317 318 319 318 319 318 318 318 318 318 319 324 328 329 332 335 334 333 334 337 341 344 346 348 349 350 351 352 352 352 351 351 352 351 351 350 351 351 350 349 350 350 349 349 349 349 348 348 348 346 345 343 340 341 339 337 333 332 333 331 332 331 332 330 329 327 326 326 325 324 324 325 325 326 325 324 322 320 318 320 322
317 316 316 318 319 319 318 320 319 320 321 321 322 324 325 324 325 325 328 332 331 337 336 336 339 340 341 341 343 346 348 349 350 350 350 351 351 351 351 351 351 352 352 354 352 351 350 350 351 350 349 348 347 346 345 344 344 343 341 340 338 335 334 332 331 330 330 329 330 329 328 327 326 326 326 326 326 326 326 326 325 324 324 322 320 322 323
321 320 320 321 321 319 320 321 323 322 322 323 324 325 325 326 326 329 329 335 333 333 337 341 340 339 339 341 343 345 346 346 346 348 349 350 351 352 352 351 351 351 353 355 353 351 350 350 351 349 349 347 347 345 346 346 345 344 343 340 336 333 332 332 330 329 328 328 329 329 330 329 327 325 326 326 327 326 326 326 324 324 324 324 322 323 318
323 322 322 322 323 324 324 323 324 324 324 323 323 324 326 327 329 330 333 333 333 335 339 341 343 342 342 343 345 345 345 344 346 348 350 351 351 353 354 352 353 352 352 353 354 353 354 353 352 351 349 347 345 345 346 347 347 346 344 340 335 333 333 331 330 329 328 328 329 329 329 329 328 329 328 327 327 327 327 326 324 324 325 323 322 326 321
320 321 322 322 323 324 323 323 323 324 324 325 325 325 326 327 327 328 329 331 333 335 338 341 343 343 344 345 344 344 344 346 348 349 351 351 352 353 352 351 350 349 348 349 353 355 355 352 353 351 348 347 346 347 347 346 346 347 340 337 334 333 333 331 331 330 330 329 328 328 328 330 330 329 328 329 329 328 327 326 324 323 324 323 322 325 322
321 321 321 321 322 323 324 324 325 324 323 324 325 326 326 327 328 329 331 333 334 335 336 340 341 340 342 344 346 347 348 349 349 349 350 352 351 351 350 349 349 348 347 344 350 353 353 353 350 349 348 347 347 349 350 348 346 346 339 337 335 333 331 331 332 331 328 331 329 329 329 329 329 329 329 328 328 328 327 325 324 323 322 322 325 324 322
322 322 322 323 324 325 326 326 325 325 324 323 324 326 327 329 331 331 332 333 333 334 335 336 339 342 343 346 345 344 346 349 349 350 351 351 350 349 348 347 346 346 343 345 353 353 353 350 345 347 347 348 348 349 350 350 348 343 339 337 335 334 332 332 332 330 329 330 330 330 329 328 327 327 328 329 329 328 326 324 322 321 321 321 326 324 322
324 324 324 324 325 324 324 324 324 325 324 323 324 326 329 331 332 333 333 334 335 335 335 335 337 339 340 341 341 343 344 346 350 350 349 350 350 348 346 348 349 350 350 354 354 353 351 346 347 347 348 349 348 348 350 350 346 341 339 339 337 334 333 332 331 331 331 333 332 331 330 328 329 327 328 328 328 327 326 325 322 321 321 321 324 325 324
321 321 322 322 322 323 324 324 325 325 326 326 325 326 328 328 328 330 332 333 335 338 337 336 336 336 337 337 339 341 343 346 350 349 348 349 349 348 347 348 350 352 353 351 352 353 347 345 347 347 348 349 349 347 345 345 343 340 340 338 336 334 333 333 333 331 331 332 332 332 329 329 328 327 326 326 327 326 325 325 324 322 321 321 322 326 325
320 320 321 322 322 322 322 322 323 325 326 327 327 328 329 328 328 328 329 331 334 337 338 337 335 334 336 339 341 342 336 334 339 346 348 346 344 344 341 341 349 351 351 351 352 351 344 346 347 346 347 348 350 347 344 344 342 342 341 338 335 334 333 333 332 332 332 332 331 330 330 330 330 329 328 327 327 327 326 324 323 323 322 321 321 324 324
319 320 320 320 321 321 322 323 323 324 325 326 327 328 328 329 328 328 330 333 333 334 335 336 337 339 340 341 338 332 329 330 333 339 339 337 339 340 338 342 351 350 352 350 349 346 346 346 346 346 345 346 346 346 345 342 342 340 340 340 337 335 334 332 332 332 333 333 331 331 330 330 329 328 328 328 327 328 329 327 325 323 322 321 321 322 323
319 319 319 320 320 321 322 323 323 323 324 325 326 326 327 328 329 331 331 332 332 333 334 336 339 338 340 341 337 334 331 331 332 333 334 335 336 336 336 344 353 354 352 349 349 347 345 346 346 345 346 345 345 341 343 341 341 340 340 339 336 335 334 333 333 333 333 332 331 331 331 330 329 328 328 328 329 329 330 329 327 324 322 321 321 321 322
319 319 319 320 320 321 322 323 323 322 321 322 324 325 326 327 327 327 329 330 330 334 335 334 334 336 340 341 337 334 331 331 333 334 332 331 332 333 337 343 350 352 348 346 346 345 344 344 344 345 348 346 345 341 341 340 340 340 341 339 335 334 333 332 331 332 332 331 331 330 331 331 330 329 330 330 330 329 330 329 327 324 322 321 321 320 320
318 319 319 319 320 320 322 322 321 321 322 324 325 325 326 327 328 328 329 329 329 331 330 330 332 333 336 339 338 339 337 337 336 335 330 330 329 330 337 344 349 347 348 348 345 343 344 344 345 346 346 338 333 340 340 339 340 340 340 337 335 333 332 331 331 332 333 333 333 332 331 331 331 331 331 330 330 329 329 326 324 323 321 319 319 320 321
318 318 319 319 319 320 322 323 323 324 324 324 323 324 325 326 327 328 329 330 332 332 332 331 331 334 337 339 339 339 339 338 336 334 332 330 328 330 336 344 345 347 348 349 344 343 343 347 341 338 336 332 332 340 339 339 339 339 338 336 335 333 334 333 333 333 333 332 332 331 331 331 330 330 331 330 329 327 325 323 322 323 324 324 323 323 324
319 319 320 320 320 321 321 321 322 321 320 320 319 320 324 326 326 327 329 329 331 332 333 333 332 331 333 334 337 336 334 334 335 336 337 336 337 343 346 347 346 348 347 344 343 342 342 344 338 334 332 331 338 340 339 337 337 338 336 336 335 334 333 334 333 333 333 332 332 331 332 329 329 329 328 328 326 324 324 323 323 323 324 324 324 325 325
319 319 320 321 320 320 319 319 319 318 318 318 319 320 322 325 326 327 327 327 327 328 329 332 334 332 332 333 334 340 340 336 334 337 342 342 341 343 345 346 343 350 346 346 345 345 348 339 333 331 330 330 340 340 339 337 335 336 336 337 337 336 335 333 332 332 332 333 332 332 330 328 328 327 325 324 323 323 323 324 323 325 325 327 326 325 326
318 318 318 319 320 319 318 317 317 317 317 319 320 321 324 324 324 326 327 326 326 326 327 331 332 329 331 332 332 336 342 346 343 340 342 344 340 339 342 344 349 345 343 342 341 343 341 333 331 329 329 336 340 340 339 336 335 335 336 336 337 336 336 335 334 334 334 333 331 331 329 326 326 326 324 323 322 323 323 325 326 326 326 327 327 327 328
318 317 317 317 317 317 317 317 316 317 319 320 321 323 323 323 322 324 324 327 325 325 326 329 332 331 330 328 327 330 334 339 340 340 342 342 341 343 341 340 344 343 344 340 341 344 340 332 332 333 335 340 339 339 339 337 336 337 337 338 337 337 336 333 331 332 334 333 331 331 329 327 326 326 325 323 323 323 324 325 328 328 327 327 328 329 329
317 318 318 317 317 319 322 321 320 321 321 321 322 323 323 321 322 324 326 327 327 325 324 328 332 333 333 331 333 335 337 339 340 340 338 339 341 340 340 344 344 342 343 340 340 341 339 337 336 337 338 339 339 339 338 337 337 337 338 336 338 336 336 336 334 335 334 333 332 331 332 330 329 327 325 324 324 325 326 327 327 329 329 329 329 331 330
318 319 322 320 320 321 322 322 323 322 322 324 324 322 322 322 323 323 326 325 326 325 324 326 329 329 330 331 333 334 336 338 338 338 339 340 338 338 338 341 340 341 341 341 341 343 340 339 337 339 340 338 338 337 339 340 338 338 338 337 339 338 336 337 335 334 335 335 333 333 332 332 331 329 327 326 326 325 326 327 328 328 329 330 330 331 331
Wind_Speed
14 14 12 11 9 8 12 14 9 7 6 5 6 8 11 8 5 3 3 6 7 2 8 12 10 7 4 8 12 12 13 13 11 10 10 8 9 10 7 12 11 8 9 10 11 12 10 11 9 13 9 7 5 8 7 10 12 11 10 9 9 8 7 6 7 5 7 5 5 4 7 8 8 8 8 7 7 7 7 7 7 7 7 9 9 8 7
12 13 12 12 12 9 7 10 9 8 6 10 8 7 6 7 7 8 1 8 6 5 7 7 12 6 4 10 13 13 13 14 12 11 10 12 9 13 17 17 13 11 7 6 7 10 6 9 8 7 7 9 7 9 9 8 8 9 9 9 9 8 8 7 7 6 7 6 6 6 8 8 8 8 8 8 7 7 7 7 7 7 8 8 7 7 6
10 14 11 14 14 11 13 10 10 12 13 11 8 7 9 5 6 8 8 3 3 10 9 9 6 6 9 8 13 17 16 13 14 13 13 12 14 14 15 13 13 11 8 6 6 9 10 8 7 7 8 9 9 10 9 9 9 8 9 9 8 9 8 7 7 7 7 7 7 8 7 8 8 8 8 8 7 8 8 8 7 7 7 7 6 6 7
8 9 11 9 10 12 12 12 11 11 15 13 3 7 3 6 4 5 6 8 7 9 8 6 5 7 10 8 5 11 13 16 14 14 13 13 13 13 14 15 13 11 8 7 4 6 8 9 9 8 8 8 9 9 9 9 8 8 8 9 8 8 8 8 8 8 8 8 9 8 8 8 8 8 8 8 8 8 8 9 7 7 7 7 7 6 7
7 9 9 11 13 13 12 11 12 15 13 7 7 5 3 6 7 7 3 1 2 7 7 8 7 6 9 7 6 6 10 14 17 15 15 13 14 14 13 14 15 16 13 9 6 5 6 8 9 9 9 8 8 7 8 8 8 8 8 8 8 8 8 8 8 8 9 10 9 8 8 8 7 8 8 9 9 9 9 8 8 7 7 7 7 7 7
6 10 13 9 8 10 8 2 6 2 4 2 8 6 6 11 14 6 5 1 7 6 7 8 7 13 6 2 4 6 9 9 11 14 14 15 14 13 16 16 14 13 9 7 8 7 7 6 7 8 9 9 8 7 8 8 9 9 9 8 9 9 8 8 9 9 9 10 9 8 8 8 8 8 9 9 8 7 8 8 8 8 8 8 7 6 6
7 8 7 8 10 6 6 1 5 6 5 7 6 6 9 6 13 13 1 10 11 8 8 10 11 11 6 14 3 8 9 9 10 11 12 10 11 13 14 16 18 15 16 14 11 10 10 11 8 8 8 9 8 8 9 10 10 10 9 9 8 8 9 9 9 9 10 10 10 9 9 9 9 9 9 9 9 8 8 8 7 7 8 7 7 7 6
6 7 5 8 4 7 6 3 5 6 7 6 6 9 3 11 16 13 5 7 7 6 9 7 8 6 7 6 4 6 5 10 11 12 12 14 12 12 12 15 16 16 16 16 16 14 11 11 11 10 10 10 10 10 10 11 10 10 10 9 9 9 9 9 10 10 10 10 10 10 10 10 10 10 9 9 9 8 8 7 7 7 7 7 7 6 6
8 5 5 10 3 9 8 7 4 3 4 5 7 8 4 4 3 5 7 5 9 10 10 11 7 6 3 2 1 8 6 9 8 8 11 12 12 11 11 13 15 16 17 17 17 13 12 13 12 12 10 11 10 10 10 10 11 10 10 9 9 10 10 10 11 11 11 11 10 10 10 11 11 10 10 9 9 7 8 8 8 7 7 7 6 6 6
6 6 7 6 8 7 3 7 6 5 4 3 4 3 4 5 9 4 8 6 7 8 8 8 9 6 3 4 3 1 4 8 10 11 9 12 11 12 11 9 10 11 13 15 15 15 16 15 15 12 12 11 11 11 11 10 10 10 10 10 10 10 11 11 11 11 10 11 11 11 11 11 11 10 9 8 8 8 9 9 8 8 7 7 6 6 6
6 6 7 6 7 4 3 7 8 11 10 2 3 2 2 8 8 8 5 7 9 7 8 7 4 3 1 3 5 5 6 5 8 5 3 0 8 8 9 10 10 10 10 13 16 16 16 18 15 12 13 13 12 11 10 10 10 10 10 10 10 11 11 11 11 10 10 10 11 12 11 11 10 11 10 9 9 8 8 8 8 7 7 7 6 5 5
8 9 6 7 2 5 6 7 5 5 8 1 3 8 2 5 3 3 6 7 6 7 6 5 6 5 2 4 3 1 4 5 4 8 8 9 7 6 4 8 10 10 9 9 13 15 15 14 14 13 13 12 12 12 11 11 11 11 11 11 11 10 10 11 10 10 10 11 11 11 11 11 10 9 9 9 9 9 8 8 8 7 7 6 7 6 4
8 10 8 4 4 3 13 14 6 2 5 5 5 5 4 4 5 6 6 6 6 7 7 6 3 2 2 5 15 14 6 3 6 9 11 10 12 8 5 5 1 6 9 11 13 15 13 11 13 15 13 12 13 12 12 12 12 11 10 10 11 10 10 11 10 10 9 10 11 11 11 11 10 9 8 9 9 9 8 7 7 7 6 6 6 5 4
10 8 10 8 2 4 10 12 16 12 7 2 6 2 8 7 9 6 7 11 13 8 4 5 4 2 1 2 4 9 4 5 6 8 9 13 10 4 4 3 2 1 4 6 5 6 8 12 13 12 11 10 11 12 12 12 12 11 11 11 11 10 10 11 10 10 10 10 10 10 10 10 10 9 8 9 9 9 8 9 9 8 8 6 4 3 3
8 7 9 9 5 6 12 14 10 17 11 1 4 7 10 16 14 10 6 8 7 4 3 3 5 7 2 3 7 1 3 6 7 7 9 8 8 7 5 6 7 3 4 3 2 6 7 7 7 7 10 8 9 10 11 12 12 12 11 11 11 11 10 11 10 11 10 11 10 9 10 10 10 10 9 9 9 9 10 10 10 10 8 8 6 3 3
3 5 5 1 1 6 9 9 5 6 6 3 5 7 7 8 10 8 9 6 4 5 5 3 3 2 5 4 3 5 1 6 5 6 5 6 5 5 4 6 10 11 9 9 8 9 3 5 5 8 8 8 8 8 9 10 10 11 12 12 13 14 11 11 11 10 11 11 10 10 11 10 10 11 10 9 9 9 10 11 10 10 8 9 8 6 4
6 2 2 4 4 4 5 6 6 4 3 5 7 7 5 6 3 8 5 6 11 10 12 14 14 10 5 5 6 8 8 7 5 5 5 5 7 2 2 5 8 9 9 10 9 11 11 6 3 5 7 11 10 11 9 8 9 12 12 13 12 11 12 11 12 12 11 10 11 11 11 11 10 11 11 11 10 8 8 9 9 9 9 8 9 7 5
9 11 7 10 7 5 1 1 6 6 6 5 7 7 6 7 5 7 8 6 6 8 10 9 6 7 11 16 17 13 6 8 8 7 7 7 5 2 2 5 8 8 8 9 9 10 10 10 8 4 7 9 9 7 6 5 10 12 12 12 12 12 12 12 13 12 12 12 12 13 12 11 11 11 12 12 12 12 9 7 7 9 8 9 9 8 6
7 5 1 6 6 7 6 4 5 4 5 6 5 6 6 5 6 7 9 7 5 7 6 7 7 6 6 6 14 11 2 4 5 6 6 4 4 4 4 4 6 8 8 9 9 9 8 9 9 8 8 6 5 6 7 9 9 11 12 13 12 13 13 13 12 12 13 11 11 11 11 10 10 10 10 10 9 8 8 5 4 5 6 7 8 8 7
6 6 3 1 5 4 3 2 3 5 6 6 6 3 5 4 5 4 6 7 8 5 5 4 5 3 3 4 10 10 5 2 6 5 5 5 6 5 5 6 7 7 9 9 8 8 7 7 7 8 9 8 6 7 7 7 8 10 11 12 12 13 14 12 12 13 13 15 14 10 10 8 9 10 10 10 10 10 11 7 5 4 4 6 7 8 8
6 9 10 14 3 4 5 9 6 5 6 6 4 4 4 5 4 4 3 7 5 4 5 6 4 1 6 9 13 9 8 3 5 2 5 5 5 6 6 6 7 7 7 8 9 8 5 5 5 5 7 6 6 7 7 7 5 7 9 11 11 12 12 11 12 12 13 12 11 12 13 13 8 7 10 12 12 10 8 5 5 6 6 5 6 8 7
6 3 6 7 4 3 3 9 7 8 8 6 4 2 5 7 6 9 9 4 4 6 7 6 4 5 2 12 7 7 2 6 8 6 2 5 7 6 6 7 9 8 8 7 8 7 5 3 3 4 4 4 4 6 7 8 5 7 8 8 9 10 8 8 9 11 9 8 8 8 8 8 9 9 12 11 10 11 8 8 8 1 3 4 5 8 6
3 4 3 4 3 3 7 4 8 8 8 7 6 1 4 2 4 5 6 7 8 5 4 4 5 3 3 9 6 1 3 4 4 6 6 5 6 7 8 9 8 8 8 7 5 6 5 3 4 3 2 3 4 5 9 7 7 7 7 8 8 8 8 7 11 9 8 8 8 6 6 8 9 11 9 11 15 13 11 8 9 10 8 6 8 10 10
6 3 6 6 6 6 8 8 7 9 6 6 9 6 8 3 9 6 7 7 6 6 4 1 3 6 4 6 3 0 2 3 4 5 5 5 4 5 9 11 8 7 8 6 5 5 5 4 3 2 3 2 3 6 8 7 6 7 7 8 8 7 7 7 8 8 8 8 8 8 7 7 6 7 10 10 8 12 10 10 13 12 11 12 14 15 17
5 8 7 7 8 9 9 10 8 7 8 5 4 6 6 7 5 6 6 3 6 6 4 4 4 4 7 5 4 3 2 4 4 4 4 3 4 4 5 9 9 5 6 6 5 4 4 3 4 3 1 3 4 4 7 8 6 5 6 8 8 9 9 9 8 9 10 9 9 9 10 9 8 9 11 10 11 8 7 10 13 13 12 12 13 14 14
1 4 6 7 8 10 10 10 11 4 5 1 5 6 4 7 7 3 4 3 3 5 5 5 4 4 4 4 5 4 2 3 2 3 4 3 3 3 5 6 6 5 5 6 6 6 6 6 4 3 3 3 4 5 5 6 5 6 6 5 6 7 8 9 9 8 8 8 8 8 9 11 12 10 8 8 9 9 8 7 8 11 12 12 12 15 12
1 4 1 9 10 10 9 9 8 9 11 7 6 7 7 7 7 11 5 4 3 5 3 4 5 6 4 3 3 3 4 2 1 0 2 4 3 3 5 5 5 6 5 5 5 5 6 6 5 4 4 4 4 4 5 5 5 6 7 7 7 10 13 9 8 9 9 9 9 8 9 9 8 9 9 9 8 9 8 8 8 7 6 4 7 8 9
7 9 6 6 8 9 10 10 10 11 10 8 6 7 9 7 6 6 8 5 5 3 3 3 4 5 7 6 6 5 2 3 2 0 1 3 4 3 5 5 5 5 5 5 5 5 5 5 5 6 5 5 4 4 5 5 5 6 5 8 9 8 10 12 11 10 10 10 10 10 10 10 9 8 8 9 9 8 7 7 8 8 7 5 4 5 11
8 10 12 10 9 8 5 6 8 8 8 8 8 5 7 9 8 7 6 6 8 5 4 3 1 3 4 5 6 5 5 4 3 2 1 2 2 4 3 5 5 5 5 5 5 5 5 5 6 6 6 6 4 3 3 4 6 5 7 9 10 10 10 11 10 9 10 10 9 9 9 9 9 8 8 8 8 8 7 7 7 7 7 7 6 5 4
8 12 13 11 8 10 8 7 9 10 11 11 11 10 9 5 6 8 9 9 7 7 7 8 6 5 6 6 5 6 6 6 5 3 1 0 0 2 3 3 4 5 5 5 5 5 5 5 6 5 6 5 5 4 4 3 4 7 8 9 9 9 10 10 9 9 9 9 9 11 9 6 6 7 8 8 8 7 8 8 8 8 8 7 7 7 7
11 11 13 12 12 10 12 12 9 9 11 11 10 10 11 10 10 9 9 9 8 6 6 7 7 8 7 6 5 6 6 5 5 4 4 2 2 2 2 3 3 4 4 5 6 5 6 5 5 6 8 6 5 5 5 5 6 7 7 7 8 10 12 11 9 9 10 10 10 9 8 8 8 8 9 9 9 8 8 8 8 8 8 8 8 7 7
11 11 12 11 11 13 13 10 11 12 13 13 13 13 11 11 12 9 9 9 7 5 5 6 6 6 6 6 6 6 6 6 5 4 4 4 3 4 4 4 5 4 4 6 7 6 5 6 6 7 8 8 6 6 5 5 5 6 7 7 7 6 11 13 8 9 9 9 10 9 8 9 9 9 9 9 10 9 8 8 8 8 9 9 8 8 8
10 10 8 8 10 11 12 12 13 14 15 14 12 11 11 10 9 9 7 8 6 6 8 7 5 5 6 6 7 6 5 5 6 6 5 5 5 4 5 4 4 5 4 4 6 7 6 5 4 8 8 10 7 7 8 8 6 7 8 8 7 7 8 9 9 9 9 9 8 9 9 8 8 8 9 9 9 9 8 8 8 8 8 8 8 8 9
6 6 7 8 7 8 9 11 12 13 13 13 12 12 12 11 12 12 10 7 8 8 8 8 8 8 7 7 7 6 5 5 6 6 6 6 6 5 5 6 6 5 5 5 6 6 5 5 5 8 8 9 9 9 9 8 8 7 6 7 8 9 10 9 9 9 9 9 9 9 8 9 9 9 9 8 8 9 9 9 9 8 8 8 8 8 12
6 7 8 9 9 9 8 8 8 9 10 11 12 12 11 11 11 12 13 12 10 9 8 8 8 8 8 8 7 7 6 7 7 7 7 6 6 6 5 5 6 6 6 6 6 6 6 7 7 8 8 8 8 9 8 8 8 6 8 8 9 10 10 10 10 10 10 9 9 9 9 9 8 8 8 9 9 8 7 7 8 7 7 7 7 7 12
7 8 8 8 8 8 9 9 8 10 10 10 10 11 10 11 13 12 13 13 12 11 10 9 9 9 9 8 8 8 8 8 7 8 8 7 5 4 4 5 6 6 6 6 5 5 6 7 9 12 8 6 7 7 7 7 6 4 8 9 9 9 9 9 9 8 9 10 10 9 8 9 9 8 9 8 8 8 8 7 7 7 6 8 6 8 9
8 8 8 9 9 10 11 9 9 9 8 9 10 10 11 11 12 12 11 12 12 12 11 9 10 10 9 9 8 8 8 7 7 7 7 6 5 5 6 6 7 7 7 7 6 6 6 6 12 14 9 6 6 6 7 10 6 6 9 9 9 9 9 10 9 8 8 8 9 9 9 8 8 8 9 8 7 7 6 7 6 7 6 7 8 9 8
8 9 9 9 9 10 9 10 10 11 11 12 11 10 11 10 10 10 11 11 12 12 12 11 10 9 9 6 6 8 10 9 8 8 7 7 6 6 6 7 7 7 7 7 6 7 6 11 16 9 7 6 7 5 7 13 8 8 8 8 8 7 8 8 7 7 8 8 8 8 8 8 9 8 8 8 6 6 5 6 6 6 5 6 8 9 9
8 7 8 8 8 10 11 10 10 10 11 12 11 11 10 11 11 11 11 12 12 11 12 12 11 9 9 9 9 10 10 9 8 7 7 7 6 6 6 6 6 7 6 4 6 7 9 12 9 8 7 6 8 6 7 11 13 8 8 7 7 7 8 7 8 8 8 8 8 8 9 8 7 8 7 8 7 7 6 6 6 6 5 5 8 9 9
8 8 9 9 9 9 10 10 10 11 10 10 11 12 11 11 11 11 11 12 12 11 11 12 12 9 8 10 10 9 9 9 6 6 7 6 5 5 5 6 7 7 7 5 5 5 11 16 11 8 7 6 7 6 7 11 12 8 7 7 7 8 7 7 8 9 9 9 9 9 8 9 8 9 8 8 7 6 6 6 6 7 6 6 7 9 9
9 9 9 9 9 10 10 10 11 11 11 10 10 10 11 11 12 12 12 12 12 12 12 11 12 11 10 9 9 6 6 11 11 4 3 3 4 6 7 8 6 7 6 5 4 7 11 10 8 8 6 6 6 7 6 12 10 7 7 8 9 8 7 8 9 9 10 10 10 10 9 9 8 9 8 8 8 7 8 8 7 7 7 7 7 8 9
10 10 11 11 10 10 11 11 11 11 11 11 11 12 12 13 13 13 13 12 12 12 12 12 10 7 6 4 3 8 4 5 8 8 3 1 5 5 7 8 7 6 7 6 10 10 9 9 7 7 8 7 6 11 10 8 8 7 6 7 9 9 9 9 8 9 9 9 10 10 9 9 9 9 9 9 9 8 9 9 9 9 8 7 7 7 8
11 12 11 11 10 11 11 11 11 12 12 11 11 11 11 12 12 13 12 12 12 13 13 11 8 6 5 4 5 5 6 7 5 3 5 5 5 7 10 9 5 7 12 9 9 7 8 7 7 6 8 8 7 11 12 8 8 8 8 8 7 9 10 9 9 9 10 10 10 10 9 10 10 10 10 11 11 10 9 9 9 8 9 8 7 7 7
11 11 11 11 11 11 11 11 12 12 13 12 12 12 13 12 12 13 13 13 13 12 12 12 12 11 8 7 7 6 7 6 5 4 3 3 5 8 14 12 6 7 14 8 8 8 8 8 8 9 12 12 12 12 9 8 8 8 10 10 9 9 8 9 9 9 10 9 10 10 10 10 10 11 11 10 10 10 9 9 9 8 9 8 7 6 7
11 10 11 12 12 12 9 7 9 10 11 11 12 13 13 12 13 13 13 11 12 13 12 12 12 13 11 8 8 8 7 8 9 8 5 2 1 8 12 15 7 5 8 10 6 7 7 8 9 12 12 14 14 15 9 9 11 11 11 9 8 8 8 9 9 9 9 10 9 9 9 9 9 9 9 9 9 9 9 9 8 6 6 6 6 6 7
12 11 12 12 12 10 10 10 9 10 11 12 13 13 12 11 12 12 11 11 11 11 10 12 13 14 13 10 9 9 9 8 6 8 9 11 11 11 11 11 4 6 10 11 6 8 7 11 12 16 16 18 17 12 9 9 10 10 9 8 8 7 8 9 9 9 9 10 9 9 9 10 9 9 9 8 8 7 7 7 6 6 6 5 5 6 6
11 11 11 10 10 11 13 12 12 13 14 13 12 12 10 10 11 10 9 11 12 13 11 10 11 10 9 12 10 9 8 6 7 8 8 8 10 10 8 11 9 11 9 8 7 7 7 9 13 16 18 20 18 11 10 10 10 10 8 7 9 8 8 8 9 9 9 9 8 8 9 9 8 8 7 7 7 7 7 8 7 7 8 8 8 7 6
11 12 11 10 11 12 13 13 13 12 12 12 12 11 11 11 11 10 9 9 11 13 14 10 6 7 7 8 11 9 10 10 9 8 9 9 7 5 5 5 4 8 10 9 10 9 6 11 18 19 19 20 14 11 10 9 10 9 9 8 8 9 9 9 9 9 9 8 8 8 8 8 8 8 7 7 8 8 8 9 8 8 8 7 7 7 7
9 11 13 13 12 12 12 12 12 12 11 11 11 10 10 11 11 11 9 8 10 11 12 10 7 6 4 4 9 8 4 1 4 5 6 6 5 5 6 6 10 13 8 6 7 5 8 13 14 18 20 17 11 11 9 9 10 10 9 8 8 9 9 9 9 8 9 9 9 8 8 10 8 7 8 8 8 8 8 9 9 9 9 8 7 7 8
8 9 9 10 9 9 9 9 10 10 10 10 10 9 9 9 9 8 8 7 6 9 10 9 4 2 1 3 6 9 8 6 2 2 2 1 2 2 2 2 7 11 9 6 6 5 9 14 13 14 13 10 10 9 9 9 10 10 8 7 7 7 7 8 8 8 8 7 9 9 7 7 7 8 8 8 8 8 8 7 7 10 14 9 7 8 7
7 6 6 8 9 9 9 8 9 10 10 10 9 8 7 7 8 9 8 7 6 8 9 8 4 3 4 6 6 7 9 8 5 5 3 3 3 3 3 2 6 7 6 5 6 6 6 7 8 9 9 10 9 9 9 9 9 9 8 7 7 7 6 6 6 8 8 8 8 8 8 8 8 8 7 7 8 7 8 8 8 7 9 9 9 8 8
9 9 7 7 7 7 8 9 9 9 8 7 6 6 7 8 9 8 6 7 6 6 8 8 4 5 6 6 6 6 5 2 2 3 3 3 4 4 5 7 6 7 7 6 6 5 7 8 9 11 12 10 9 10 9 10 9 8 7 7 8 8 7 7 8 8 9 9 9 8 8 7 7 8 7 7 8 8 8 8 9 8 8 8 8 7 6
Wind_Direction
234 236 256 274 269 250 284 291 275 267 212 230 310 290 249 221 255 304 139 331 285 297 15 40 95 95 84 136 136 142 144 144 144 143 145 160 168 154 230 260 265 239 218 227 226 204 193 193 176 185 185 161 145 133 140 153 153 156 158 158 164 169 172 170 166 155 143 157 140 150 116 119 116 118 114 110 109 104 108 108 112 109 101 97 95 96 93
273 233 221 241 261 279 232 264 270 227 266 271 251 230 302 298 262 284 252 218 271 5 49 36 82 96 90 120 140 135 148 152 147 157 166 172 180 171 194 226 235 235 225 217 230 170 193 188 180 166 154 161 143 134 139 147 149 153 156 161 164 167 170 163 162 152 145 145 146 128 125 123 125 122 120 118 115 112 107 97 90 91 95 101 103 104 100
279 293 245 210 209 222 280 250 236 282 278 253 238 302 288 276 270 262 281 356 312 47 12 34 17 117 102 123 140 150 151 158 157 167 190 193 186 194 199 210 219 224 224 223 192 178 182 184 164 149 146 152 137 142 147 153 157 156 159 160 166 168 166 159 159 151 146 147 145 131 129 128 127 126 121 118 116 108 103 106 106 105 110 111 111 106 98
267 240 263 253 254 248 229 255 254 229 251 260 221 244 239 324 338 332 300 18 3 35 23 349 50 74 83 114 116 143 159 161 176 179 189 199 210 201 204 210 215 219 217 223 193 178 175 167 152 152 154 157 152 155 153 157 157 157 160 163 166 167 162 157 157 155 150 149 146 140 139 135 130 125 120 117 118 116 116 116 117 119 114 111 109 104 93
277 285 262 253 238 227 231 234 253 245 239 251 270 274 34 249 299 312 323 120 353 43 23 12 10 36 129 129 149 170 178 172 172 189 195 200 206 208 209 210 210 211 208 204 186 168 176 170 158 159 152 159 168 164 162 157 156 161 162 165 164 162 163 157 159 157 154 150 148 145 145 139 132 127 124 124 124 125 125 124 121 121 122 118 110 110 112
288 282 296 271 243 240 244 270 252 312 273 334 284 281 266 25 341 319 22 308 70 43 32 14 15 82 288 143 141 158 160 176 179 190 199 201 200 198 199 208 214 213 207 196 190 182 176 179 160 165 159 164 171 170 166 161 163 164 163 166 164 162 161 160 160 161 155 152 150 147 143 139 139 132 131 130 129 124 122 125 127 130 125 117 114 107 100
279 304 283 278 250 252 336 48 341 331 288 232 234 285 299 168 204 254 121 36 51 35 18 24 16 51 18 337 124 134 155 165 183 198 202 206 204 197 191 198 205 201 199 196 192 185 184 186 180 166 171 166 168 170 170 166 165 165 166 163 164 162 161 159 161 161 154 152 151 145 144 141 144 142 134 132 129 128 131 132 132 126 124 121 112 113 115
284 264 256 261 255 14 343 334 266 223 278 312 309 292 267 51 38 354 90 75 59 45 11 15 44 16 104 330 339 112 145 183 187 197 199 198 206 203 191 190 198 201 198 195 193 195 184 182 188 187 179 174 171 175 168 163 164 166 165 164 165 161 162 162 165 160 156 154 150 147 146 147 152 143 136 135 134 133 129 126 117 116 115 123 127 118 108
271 272 264 261 340 296 272 271 294 348 261 248 253 268 93 305 149 68 37 55 54 36 30 13 25 34 29 186 334 111 168 206 216 204 198 196 196 193 187 188 194 200 198 194 196 187 187 190 190 192 188 184 180 170 167 164 164 164 163 166 166 164 166 167 167 161 161 156 152 149 150 155 152 141 139 136 133 133 127 125 127 129 131 124 123 123 123
248 266 265 259 250 264 202 206 292 304 288 284 322 5 254 38 59 32 57 45 44 35 28 26 354 0 0 198 65 49 224 243 262 218 236 194 193 195 188 186 194 194 201 201 191 190 191 196 194 187 187 182 176 174 171 167 164 164 167 168 165 165 170 171 163 161 160 155 150 152 157 157 147 139 135 133 134 136 134 133 133 133 128 126 123 125 122
287 284 276 284 288 250 340 292 232 220 234 255 312 324 281 16 24 37 16 29 52 26 14 14 13 317 262 156 195 183 237 193 283 297 343 306 156 181 178 191 197 197 200 200 197 192 193 196 195 190 182 174 174 174 169 167 165 165 170 166 167 170 171 164 161 158 156 153 153 156 156 148 142 139 140 138 135 133 131 129 127 131 131 127 126 118 113
250 258 264 268 304 338 327 299 350 356 82 115 295 269 56 329 36 19 39 36 39 31 36 23 37 13 8 326 313 243 216 237 238 337 10 357 138 132 150 191 194 196 191 193 204 204 202 198 189 189 183 177 175 167 170 163 169 171 169 169 166 170 162 159 158 153 153 152 154 151 146 137 137 137 137 135 136 133 130 130 133 127 126 127 121 113 112
238 247 256 227 238 279 356 317 322 75 19 333 252 316 34 27 69 35 14 68 49 52 47 47 58 52 155 285 326 321 301 278 33 16 9 18 26 48 28 51 150 186 186 197 206 207 208 202 193 191 187 185 173 167 164 166 172 169 166 163 165 164 158 154 151 151 147 151 147 144 139 136 133 134 136 135 132 131 127 121 114 110 105 100 100 114 128
251 252 251 245 149 42 334 354 9 350 227 179 19 257 274 345 30 20 16 38 52 49 58 109 105 138 121 15 285 284 356 40 32 37 29 21 6 31 71 83 97 95 190 196 220 206 213 188 192 180 181 175 167 162 164 171 169 164 162 161 159 152 152 151 145 142 140 138 137 133 129 129 132 132 130 129 128 125 119 117 117 106 106 106 98 104 118
245 251 254 250 247 354 350 356 35 40 61 331 276 320 3 0 354 360 45 50 57 20 27 65 131 145 184 249 251 244 70 69 77 59 36 35 344 341 30 36 24 134 130 144 173 222 209 201 178 178 167 151 156 161 167 167 167 165 157 155 147 145 146 142 139 139 137 136 136 133 130 131 132 133 133 130 125 123 123 122 119 125 127 124 123 127 121
277 263 271 315 33 288 352 356 20 49 72 53 346 339 18 29 2 297 47 52 20 27 18 9 355 96 158 202 223 346 55 103 92 82 88 50 331 285 41 35 48 59 72 57 35 3 150 156 152 168 161 144 153 168 178 169 169 153 151 146 148 150 143 138 136 135 138 138 132 128 131 132 133 133 132 124 123 129 134 137 143 142 140 132 133 139 148
317 97 237 232 203 312 337 355 42 4 16 6 6 341 356 64 31 319 32 15 49 32 33 31 17 10 333 260 218 188 191 154 134 111 97 122 234 247 80 70 71 71 67 59 45 42 25 18 103 124 140 150 156 176 180 176 157 149 147 147 145 139 140 137 134 137 140 133 128 132 136 135 134 133 127 130 127 132 141 145 142 141 139 144 129 146 152
302 293 283 177 220 101 41 353 351 335 5 360 355 7 14 15 17 359 46 37 47 48 59 43 36 45 26 350 320 270 200 139 138 146 140 154 172 133 102 95 88 86 84 73 63 45 38 18 2 80 121 133 149 183 169 163 144 142 138 138 138 140 140 141 142 136 126 125 131 140 141 144 144 142 141 142 146 152 151 146 151 143 148 145 139 140 159
273 262 333 325 54 69 31 21 343 344 356 356 2 19 13 5 8 20 5 70 63 56 59 95 104 66 30 353 297 296 331 92 109 129 135 138 116 90 72 66 92 98 90 90 75 61 55 33 18 25 62 69 82 80 105 129 135 132 134 139 142 143 145 141 135 131 131 136 140 140 137 137 136 136 138 140 136 120 96 102 122 128 139 150 141 143 144
273 299 320 358 354 21 310 23 16 25 14 13 24 349 330 355 345 340 56 109 104 103 69 64 81 96 160 219 285 291 330 155 135 135 132 126 107 93 93 73 67 84 98 92 89 87 66 48 50 64 74 73 70 76 88 113 122 129 135 142 144 147 144 139 140 140 138 140 140 138 135 128 135 141 147 144 125 120 130 146 156 150 186 182 154 144 150
316 298 14 10 38 59 81 71 40 358 359 8 319 51 3 3 3 348 16 44 48 86 117 158 141 140 254 181 227 227 159 123 82 107 128 112 102 100 88 87 81 77 79 91 97 91 81 63 73 84 86 86 96 109 120 116 112 126 135 145 147 141 141 140 144 141 144 152 147 142 144 147 133 138 150 137 129 123 95 104 157 171 219 186 153 143 152
262 314 1 341 336 312 17 1 7 349 7 348 12 28 11 0 9 26 29 12 28 36 29 17 40 128 102 313 252 240 103 119 143 152 163 122 113 106 107 100 90 78 75 89 101 103 105 105 102 119 113 137 129 143 131 127 137 136 146 138 133 135 130 120 123 138 135 130 134 132 119 111 106 67 33 69 117 129 124 115 97 16 217 197 160 157 142
323 1 347 36 320 272 111 302 0 338 27 351 17 143 189 255 339 357 18 9 12 25 34 1 5 354 210 196 251 280 135 137 136 143 153 138 126 125 113 103 97 98 94 84 91 99 106 107 99 115 166 157 189 170 118 139 150 158 150 137 138 130 131 137 144 135 122 121 130 120 110 115 113 118 116 48 44 68 96 99 104 102 94 103 119 122 124
278 17 32 13 6 334 341 331 336 315 37 337 4 36 100 41 299 343 351 7 358 352 341 12 355 329 350 326 341 179 105 132 119 119 125 124 130 129 125 122 111 110 112 110 116 114 114 117 111 102 152 151 193 150 133 144 153 159 151 143 145 139 132 127 123 121 117 121 125 118 113 110 102 118 114 104 77 43 46 95 92 91 95 97 104 113 121
2 24 28 7 331 322 315 311 315 318 337 6 336 8 6 27 66 328 297 341 328 322 336 353 360 337 333 330 348 21 41 80 91 86 80 98 132 131 111 104 115 133 126 126 135 131 110 116 127 141 191 99 22 94 121 137 161 158 140 151 142 149 138 141 133 137 140 140 138 136 128 123 119 121 126 131 123 111 49 53 77 81 77 86 95 104 112
63 1 351 345 324 306 303 297 287 238 214 5 347 345 336 342 360 325 266 245 272 318 351 348 325 335 328 355 341 341 70 92 81 169 131 136 106 103 112 115 125 130 140 136 138 151 150 155 153 152 135 111 110 112 113 97 104 107 109 106 112 122 136 146 145 138 136 137 138 131 128 142 148 143 139 137 134 125 123 120 83 65 59 59 80 89 82
25 218 291 318 317 310 315 317 330 341 329 334 311 317 310 313 334 332 287 208 226 239 287 312 325 326 329 1 342 4 351 1 208 240 117 125 129 110 110 128 139 142 143 138 139 147 147 153 159 169 137 107 96 105 113 111 112 126 127 133 117 125 134 146 150 144 144 141 139 136 142 142 140 149 147 143 137 137 139 134 125 123 133 81 44 71 112
319 320 9 324 307 296 292 298 301 306 305 308 290 272 270 271 285 300 340 304 244 302 297 311 337 346 339 343 339 341 317 284 330 92 128 136 125 139 134 141 144 146 147 144 146 132 153 157 167 168 173 130 102 106 132 149 139 161 156 130 123 133 154 159 162 151 146 145 148 151 152 150 153 153 152 147 147 147 143 131 128 128 131 117 110 66 86
268 259 262 259 245 259 287 319 317 308 300 286 278 270 262 254 238 254 271 314 325 297 275 321 317 318 307 331 331 327 323 321 313 350 13 78 123 130 153 158 158 158 144 146 148 157 171 174 177 175 153 125 124 145 148 170 171 167 138 136 138 153 164 169 164 150 144 147 152 154 151 153 158 149 144 142 144 144 140 140 138 137 120 122 120 104 104
319 344 313 288 318 305 297 301 290 307 307 312 315 310 303 291 261 255 257 260 272 308 329 337 322 326 331 329 339 318 316 324 323 310 301 177 151 133 165 196 186 128 133 136 148 167 188 185 183 166 131 122 130 149 182 171 138 134 135 139 152 158 167 165 159 148 142 142 139 138 142 138 130 131 140 142 145 140 144 150 159 150 140 148 150 149 159
335 322 315 307 279 270 274 288 311 310 301 295 290 287 284 278 257 251 258 257 255 254 280 298 317 322 324 328 319 320 316 309 312 305 283 221 162 180 189 213 225 163 174 167 160 183 189 189 190 173 133 142 160 164 191 162 148 137 138 147 155 160 139 125 134 136 133 134 140 143 142 140 140 148 147 149 145 153 160 166 163 157 151 156 164 168 169
303 311 315 315 321 325 324 323 301 286 273 270 269 265 264 270 277 255 229 234 240 243 255 266 278 295 311 310 310 306 312 306 299 291 283 272 207 182 202 205 236 236 208 170 163 170 209 195 193 141 143 143 172 173 181 157 151 153 158 168 154 139 134 138 137 133 136 142 147 148 152 151 155 154 153 154 158 162 168 166 166 162 158 164 174 178 166
327 315 306 327 336 329 322 320 317 317 319 315 314 320 315 303 288 280 258 250 236 206 233 241 235 237 247 275 281 289 294 300 291 283 270 257 245 215 203 205 223 247 251 182 175 177 192 210 176 138 149 145 169 180 179 166 170 180 176 170 153 139 139 148 143 139 143 148 155 158 152 151 149 155 157 158 163 164 170 168 169 176 166 170 178 176 165
342 328 324 326 319 319 315 315 319 312 310 310 309 308 301 301 304 309 301 266 253 247 223 219 233 237 236 231 248 264 266 273 272 266 255 252 249 236 199 188 198 216 237 215 186 192 186 197 149 143 155 155 167 190 186 184 179 187 176 157 158 149 156 155 150 155 156 160 158 154 152 153 157 162 164 163 167 175 177 174 179 184 169 174 178 175 153
311 306 309 311 309 303 303 298 303 309 306 302 302 300 308 310 309 309 312 304 281 271 275 261 246 242 235 233 212 219 233 244 253 257 257 250 246 243 215 189 202 209 219 209 197 203 177 175 159 155 153 159 171 195 196 183 187 185 161 147 155 162 163 161 165 167 163 159 154 158 161 162 165 164 167 172 182 180 182 176 175 181 172 171 179 149 155
291 291 293 289 289 289 289 295 302 301 302 306 309 308 303 303 303 302 300 300 306 297 274 262 257 253 254 246 238 229 228 232 240 246 250 243 230 230 244 227 216 217 221 226 209 196 175 171 152 141 158 163 185 200 192 178 190 162 136 141 158 168 169 169 173 168 168 160 161 163 162 164 167 167 175 185 182 182 180 177 173 183 170 175 155 141 152
299 291 289 290 291 290 290 289 287 288 294 298 298 300 304 306 304 300 295 295 296 297 289 274 269 269 261 258 255 250 241 231 232 237 244 241 225 212 217 226 222 221 212 224 210 193 176 158 141 150 158 161 188 210 192 177 189 152 140 151 166 170 170 176 176 168 169 162 162 162 164 165 172 174 175 185 183 184 178 173 173 185 176 165 141 151 154
296 294 293 291 290 288 289 290 290 289 288 289 290 295 300 301 301 304 302 292 288 289 292 280 266 264 267 269 261 253 248 241 234 236 240 237 225 219 213 220 223 220 217 223 194 180 166 145 149 156 175 169 179 203 182 183 159 146 151 157 165 168 172 180 171 169 165 166 167 166 169 171 172 179 173 180 181 177 169 172 171 184 185 166 145 158 163
294 298 295 294 296 297 297 297 296 293 294 293 295 295 299 303 303 299 296 292 286 282 282 282 270 256 249 247 247 251 247 243 235 234 238 237 229 216 218 215 227 232 228 211 176 178 141 150 161 169 183 170 172 193 186 173 151 156 162 164 162 167 182 181 174 170 169 164 169 169 171 171 174 173 174 179 179 178 179 186 171 181 193 181 152 164 171
294 293 294 297 294 294 291 290 292 292 291 293 297 300 302 303 300 298 291 289 286 287 285 281 268 247 242 248 249 250 251 249 237 232 242 241 228 227 236 235 230 234 234 232 219 148 150 158 160 174 176 174 168 174 176 164 157 166 165 172 164 172 185 178 175 172 170 166 168 162 173 172 175 173 175 179 181 182 187 191 179 185 199 197 173 166 174
290 291 294 297 299 298 292 292 292 297 296 292 290 293 300 299 297 292 287 286 288 288 287 288 283 266 253 246 241 256 2 326 300 293 4 343 265 232 233 234 212 223 210 219 198 136 152 159 168 173 182 171 173 170 173 166 170 178 181 171 168 182 183 179 180 174 169 169 171 174 177 171 172 172 173 175 184 185 190 199 195 190 206 201 192 172 170
299 299 297 296 295 294 294 295 295 293 294 296 296 295 293 293 292 290 290 287 286 284 283 277 283 297 299 279 83 86 115 238 289 321 356 264 258 261 237 236 185 198 188 149 122 141 160 168 179 182 182 187 171 172 173 172 183 187 201 195 180 182 181 181 180 175 169 174 172 177 175 174 175 178 176 182 190 200 194 192 193 189 200 204 199 184 172
302 299 299 298 297 295 293 294 296 294 294 295 295 292 294 298 298 295 291 289 285 285 282 270 247 231 214 174 154 163 169 207 213 265 293 287 282 294 289 293 206 172 143 135 152 150 168 186 180 202 178 183 179 173 176 184 195 196 208 209 192 186 179 183 187 179 175 178 176 182 177 177 179 184 185 189 193 197 194 192 192 187 190 201 203 192 181
302 300 299 298 297 298 299 300 302 303 302 302 306 304 301 298 296 296 292 293 293 292 290 281 270 255 225 179 174 187 200 194 173 172 195 295 329 297 269 263 260 161 146 153 169 181 180 189 204 194 176 176 169 174 186 195 200 210 216 202 185 195 183 175 189 184 181 181 180 184 184 183 183 185 188 188 189 193 194 190 191 189 189 195 202 196 189
302 301 299 298 299 299 300 309 302 298 293 292 292 293 294 293 291 289 290 290 285 282 280 277 263 248 234 203 194 188 180 176 173 166 156 113 302 271 256 245 227 175 169 159 174 201 206 196 192 177 162 156 162 179 195 200 200 218 222 197 182 186 185 184 188 187 182 185 183 185 184 184 187 185 187 187 189 190 187 183 182 180 179 192 202 200 191
304 305 305 301 297 294 294 293 288 282 281 284 287 286 284 285 286 284 280 275 265 268 267 264 266 267 254 221 193 184 181 185 171 169 179 173 178 213 237 249 209 175 188 191 184 201 209 209 184 164 154 157 174 183 199 206 202 220 217 200 188 191 188 186 189 187 186 189 184 186 182 184 186 188 187 187 188 186 174 171 171 179 192 198 207 212 202
305 300 295 293 297 298 299 299 295 288 286 286 285 287 289 290 287 283 276 276 278 277 267 259 257 263 263 245 211 178 190 182 185 182 185 197 212 217 244 224 202 187 173 191 211 213 221 204 177 165 163 168 172 186 203 204 205 225 209 194 189 195 196 190 191 192 188 190 183 185 179 181 185 184 182 180 181 181 164 174 191 189 190 198 204 201 211
306 302 301 302 298 297 297 294 290 287 287 286 289 291 290 290 284 278 274 280 281 280 271 255 247 259 268 261 254 228 191 172 171 188 192 198 200 203 210 209 179 138 163 203 216 231 215 161 166 164 168 169 173 184 198 198 205 223 219 195 185 193 196 196 196 196 190 189 181 187 181 185 183 182 172 180 183 182 175 181 193 196 204 201 189 191 204
313 305 300 297 299 303 298 297 296 292 289 290 290 289 290 289 289 286 277 265 269 263 256 251 236 230 251 278 286 264 277 288 162 143 165 170 193 205 183 197 159 149 180 203 221 225 152 163 164 163 165 168 180 187 193 196 208 219 220 200 197 198 198 197 197 196 190 189 184 188 184 185 184 182 175 185 183 183 189 189 189 193 202 202 197 196 197
302 303 305 301 296 294 297 299 297 299 303 300 295 295 298 301 296 289 278 270 259 270 281 268 232 215 182 195 241 257 260 249 243 133 151 191 244 297 280 191 154 170 177 193 218 198 152 164 167 167 166 181 186 194 196 202 213 220 217 198 193 196 197 194 185 179 182 183 187 191 188 188 189 192 185 184 185 185 193 202 198 191 190 196 203 204 201
288 276 262 265 266 271 273 275 279 286 291 293 293 294 293 280 272 279 285 286 287 283 263 249 221 161 154 189 207 213 228 226 188 166 180 204 225 231 254 153 160 180 199 198 211 204 161 171 169 175 180 190 197 207 204 205 221 219 204 203 192 201 194 162 176 184 186 189 192 196 193 190 185 186 186 183 184 190 196 201 203 191 188 196 205 207 202
262 262 228 229 250 260 264 274 277 284 286 286 286 289 288 295 299 296 291 305 295 266 279 283 247 190 194 186 199 197 206 189 142 148 174 206 218 221 218 199 191 189 197 208 221 194 171 179 173 179 187 193 205 214 207 209 221 232 210 193 189 189 196 180 186 193 197 191 196 194 190 188 185 180 187 187 190 197 205 201 204 204 195 194 200 208 202